User: anonymous   Login
Location: Poughquag
(41.6090°N, 73.6820°W)
Time: 08:52:54
(UTC-04:00)
Language:

Courier 1B - Orbit

View from above orbital plane
View from above orbital plane
View from above satellite
View from above satellite

Ground track
Ground track

The orbit data is extracted from the following two-line orbital elements,

1    58U 60013A   19287.13568187  .00000089  00000-0  20060-5 0  9999
2    58  28.3275 269.3349 0165015 181.6783 178.3216 13.46319384905790
Epoch (UTC): 14 October 2019 03:15:22
Eccentricity: 0.0165015
inclination: 28.3275°
perigee height: 962 km
apogee height: 1209 km
right ascension of ascending node: 269.3349°
argument of perigee: 181.6783°
revolutions per day: 13.46319384
mean anomaly at epoch: 178.3216°
orbit number at epoch: 90579

The dashed part of the orbit path shows where the satellite is in the earth's shadow,  

DLR